Location: St. Louis
(38.6270°N, 90.1994°W)
Time: 12:16:39
(UTC-06:00)

Altair - Pass Details

Date: 09 December 2021
Orbit: 1501 x 1683 km, 47.2° (Epoch: 25 January)

Event Time Altitude Azimuth Distance (km) Brightness Sun altitude
Rises 11:01:43 0° 177° (S) 4,873 11.4 27.3°
Reaches altitude 10° 11:06:33 10° 158° (SSE) 3,860 11.3 27.5°
Maximum altitude 11:11:55 16° 124° (SE) 3,353 10.1 27.7°
Drops below altitude 10° 11:17:10 10° 90° (E) 3,789 9.8 27.9°
Sets 11:21:47 0° 71° (ENE) 4,742 10.0 28.0°
